METEOR 2-11 DEB, 43310

Orbit data source: Space-Track

METEOR 2-11 DEB, 43310 is space debris in LEO originally from a launch on Thu, 05 Jul 1984 UTC launched from the Plesetsk Missile And Space Complex (PKMTR). Debris objects in space refer to the collection of defunct objects orbiting the Earth. Examples of debris include non-operational satellites, rocket bodies, and fragments generated from explosions, collisions, or faulty payload assembly.

Loading next visibility...
Identifier
43310, 1984-072V
Orbit
LEO
Country
Flag of CISCIS
Related business
Manufacturer
Unknown
Mission
Spacecraft
Bus & Motor
Unknown
Mass
Unknown
Launch date (UTC)
1984-07-05 (41 years ago)
Launch vehicle
Unknown
Launch site
Plesetsk Missile And Space Complex (PKMTR)
Object type
Payload
Rocket body
Debris
Shape & HBR
Unknown shape, 0.1 m
Radar Cross Section
Small (<0.1 m²)

Expand to show TLE details & history
Last TLE update: 12 hours ago

TLE from 12 hours ago
0 METEOR 2-11 DEB
1 43310U 84072V   25301.47877028  .00002516  00000-0  18692-2 0  9998
2 43310  82.5441 215.6010 0023366  20.9404 339.2713 13.94574529551526
Epoch: 2025-10-28T11:29Z
TLE epoch observation values (Epoch: 2025-10-28T11:29:25.752Z)
Latitude
-0.00005°
Longitude
6.17802°
Altitude
899.629 km
Speed
7.41 km/s
True Right ascension
14h 22m 24s
True Declination
0° 00' 00"
Sunlit
Object was in daylight at epoch
Visualization orbit readout
Latitude
Unknown
Longitude
Unknown
Altitude
Unknown
Speed
Unknown
Apparent Right ascension
Unknown
Apparent Declination
Unknown
Sunlit
N/A
Visualization observer readout
Local Sidereal Time
19:27:05
Azimuth
Unknown
Elevation
Unknown
Doppler factor
Unknown
Orbital elements
Apogee altitude
926.81 km
Perigee altitude
892.752 km
Semi-major axis
7,287.918 km
Eccentricity
0.00234
Inclination
82.5441°
RAAN
215.601°
Arg. of periapsis
20.9404°
True anomaly
339.17627°
Mean anomaly
339.2713°
Eccentric anomaly
339.22381°
Mean motion
3.48849 °/min
Orbital period
103.2 mins
BSTAR
0.0018692
Loading maneuver chart data...
Computing Atmospheric mass density...
Loading historical data...
Loading historical data...
Loading historical data...
Loading historical data...
Loading historical data...
Loading historical data...
Loading historical data...

Documentation

Showing up to 5 results
|